Change the Weather History Date:

Friday, December 21, 2012

  Actual Average (KFLO) Record (KFLO)
Temperature  
Mean Temperature 47 °F 46 °F  
Max Temperature 55 °F 56 °F 79 °F (2013)
Min Temperature 39 °F 36 °F 16 °F (1981)
Degree Days  
Heating Degree Days 18 19  
Month to date heating degree days 358  
Since 1 July heating degree days 780  
Cooling Degree Days 0 0  
Month to date cooling degree days 0  
Year to date cooling degree days 2059  
Moisture  
Dew Point 30 °F    
Average Humidity 56    
Maximum Humidity 72    
Minimum Humidity 40    
Precipitation  
Precipitation 0.00 in 0.10 in 1.30 in (1972)
Month to date precipitation 1.99  
Year to date precipitation 41.89  
Sea Level Pressure  
Sea Level Pressure 29.77 in    
Wind  
Wind Speed 17 mph (West)    
Max Wind Speed 28 mph    
Max Gust Speed 45 mph    
Visibility 10 miles    
Events      
T = Trace of Precipitation, MM = Missing Value Source: NWS Daily Summary

Daily Weather History Graph

Daily Weather History Graph

Search for Another Location

Airport or City:

Trip Planner

Search our weather history database for the weather conditions in past years. The results will help you decide how hot, cold, wet, or windy it might be!

Date:

Astronomy

Dec. 21, 2012 Rise Set
Actual Time 7:19 AM EST 5:11 PM EST
Civil Twilight 6:51 AM EST 5:39 PM EST
Nautical Twilight 6:20 AM EST 6:11 PM EST
Astronomical Twilight 5:49 AM EST 6:41 PM EST
Moon 12:48 PM EST 1:15 AM EST
Length of Visible Light 10h 48m
Length of Day
9h 52m
Waxing Gibbous, 64% of the Moon is Illuminated
Dec 21
Waxing Gibbous
Dec 28
Full
Jan 4
Last Quarter
Jan 11
New
Jan 18
First Quarter

Hourly Weather History & Observations

Time (EST) Temp. Windchill Dew Point Humidity Pressure Visibility Wind Dir Wind Speed Gust Speed Precip Events Conditions
12:15 AM 55.4 °F - 46.4 °F 72% 29.63 in 10.0 mi West 17.3 mph 25.3 mph N/A   Overcast
12:35 AM 55.4 °F - 44.6 °F 67% 29.64 in 10.0 mi WSW 19.6 mph 27.6 mph N/A   Overcast
12:55 AM 53.6 °F - 42.8 °F 67% 29.65 in 10.0 mi WSW 17.3 mph 26.5 mph N/A   Overcast
1:15 AM 53.6 °F - 42.8 °F 67% 29.66 in 10.0 mi WSW 19.6 mph 34.5 mph N/A   Mostly Cloudy
1:35 AM 51.8 °F - 41.0 °F 67% 29.66 in 10.0 mi West 20.7 mph 29.9 mph N/A   Scattered Clouds
1:55 AM 50.0 °F - 35.6 °F 58% 29.68 in 10.0 mi WSW 25.3 mph 44.9 mph N/A   Scattered Clouds
2:15 AM 46.4 °F 39.0 °F 32.0 °F 57% 29.70 in 10.0 mi West 19.6 mph 41.4 mph N/A   Unknown
2:55 AM 44.6 °F 36.4 °F 32.0 °F 61% 29.71 in 10.0 mi WSW 20.7 mph 28.8 mph N/A   Clear
3:15 AM 44.6 °F 36.4 °F 32.0 °F 61% 29.71 in 10.0 mi West 20.7 mph 27.6 mph N/A   Clear
3:35 AM 44.6 °F 37.4 °F 32.0 °F 61% 29.71 in 10.0 mi WSW 16.1 mph 25.3 mph N/A   Clear
3:55 AM 44.6 °F 37.4 °F 32.0 °F 61% 29.71 in 10.0 mi WSW 16.1 mph 25.3 mph N/A   Clear
4:15 AM 44.6 °F 37.4 °F 32.0 °F 61% 29.71 in 10.0 mi West 16.1 mph 25.3 mph N/A   Clear
4:35 AM 44.6 °F 37.4 °F 32.0 °F 61% 29.71 in 10.0 mi WSW 16.1 mph 26.5 mph N/A   Clear
4:55 AM 42.8 °F 34.8 °F 32.0 °F 66% 29.71 in 10.0 mi WSW 17.3 mph 27.6 mph N/A   Clear
5:15 AM 42.8 °F 35.8 °F 32.0 °F 66% 29.71 in 10.0 mi West 13.8 mph 24.2 mph N/A   Clear
5:35 AM 42.8 °F 35.4 °F 32.0 °F 66% 29.72 in 10.0 mi West 15.0 mph 25.3 mph N/A   Clear
5:55 AM 42.8 °F 35.8 °F 30.2 °F 61% 29.72 in 10.0 mi West 13.8 mph 23.0 mph N/A   Clear
6:15 AM 42.8 °F 36.2 °F 30.2 °F 61% 29.73 in 10.0 mi WSW 12.7 mph 23.0 mph N/A   Clear
6:55 AM 42.8 °F 36.2 °F 30.2 °F 61% 29.74 in 10.0 mi WSW 12.7 mph 20.7 mph N/A   Clear
7:15 AM 42.8 °F 35.8 °F 30.2 °F 61% 29.74 in 10.0 mi WSW 13.8 mph 21.9 mph N/A   Clear
7:35 AM 42.8 °F 36.2 °F 30.2 °F 61% 29.75 in 10.0 mi WSW 12.7 mph 23.0 mph N/A   Clear
7:55 AM 42.8 °F 36.2 °F 30.2 °F 61% 29.75 in 10.0 mi WSW 12.7 mph 19.6 mph N/A   Clear
8:15 AM 42.8 °F 35.8 °F 32.0 °F 66% 29.75 in 10.0 mi WSW 13.8 mph 21.9 mph N/A   Clear
8:35 AM 44.6 °F 37.4 °F 32.0 °F 61% 29.75 in 10.0 mi SW 16.1 mph 27.6 mph N/A   Clear
8:55 AM 44.6 °F 36.4 °F 32.0 °F 61% 29.75 in 10.0 mi WSW 20.7 mph 26.5 mph N/A   Clear
9:15 AM 44.6 °F 35.1 °F 32.0 °F 61% 29.75 in 10.0 mi WSW 27.6 mph 36.8 mph N/A   Clear
9:35 AM 44.6 °F 36.4 °F 30.2 °F 57% 29.77 in 10.0 mi West 20.7 mph 31.1 mph N/A   Clear
9:55 AM 44.6 °F 35.5 °F 28.4 °F 53% 29.78 in 10.0 mi West 25.3 mph 36.8 mph N/A   Clear
10:15 AM 44.6 °F 35.9 °F 28.4 °F 53% 29.78 in 10.0 mi West 23.0 mph 39.1 mph N/A   Clear
10:35 AM 44.6 °F 36.4 °F 28.4 °F 53% 29.78 in 10.0 mi West 20.7 mph 32.2 mph N/A   Clear
10:55 AM 44.6 °F 35.3 °F 28.4 °F 53% 29.78 in 10.0 mi WSW 26.5 mph 39.1 mph N/A   Scattered Clouds
11:15 AM 46.4 °F 39.0 °F 28.4 °F 50% 29.78 in 10.0 mi WSW 19.6 mph 36.8 mph N/A   Clear
11:35 AM 46.4 °F 38.3 °F 28.4 °F 50% 29.77 in 10.0 mi West 23.0 mph 32.2 mph N/A   Clear
11:55 AM 46.4 °F 39.0 °F 28.4 °F 50% 29.76 in 10.0 mi West 19.6 mph 36.8 mph N/A   Clear
12:15 PM 48.2 °F - 28.4 °F 46% 29.76 in 10.0 mi WSW 16.1 mph 26.5 mph N/A   Scattered Clouds
12:35 PM 46.4 °F 38.3 °F 26.6 °F 46% 29.75 in 10.0 mi West 23.0 mph 34.5 mph N/A   Scattered Clouds
12:55 PM 48.2 °F - 26.6 °F 43% 29.75 in 10.0 mi West 21.9 mph 33.4 mph N/A   Mostly Cloudy
1:15 PM 48.2 °F - 28.4 °F 46% 29.75 in 10.0 mi West 15.0 mph 33.4 mph N/A   Mostly Cloudy
1:35 PM 46.4 °F 39.5 °F 26.6 °F 46% 29.74 in 10.0 mi West 17.3 mph 28.8 mph N/A   Mostly Cloudy
1:55 PM 50.0 °F - 26.6 °F 40% 29.74 in 10.0 mi West 23.0 mph 29.9 mph N/A   Scattered Clouds
2:15 PM 48.2 °F - 26.6 °F 43% 29.74 in 10.0 mi West 15.0 mph 31.1 mph N/A   Mostly Cloudy
2:35 PM 48.2 °F - 26.6 °F 43% 29.74 in 10.0 mi West 21.9 mph 32.2 mph N/A   Overcast
2:55 PM 50.0 °F - 26.6 °F 40% 29.75 in 10.0 mi West 18.4 mph 31.1 mph N/A   Overcast
3:15 PM 48.2 °F - 26.6 °F 43% 29.76 in 10.0 mi West 24.2 mph 34.5 mph N/A   Mostly Cloudy
3:35 PM 48.2 °F - 26.6 °F 43% 29.76 in 10.0 mi West 20.7 mph 34.5 mph N/A   Overcast
3:55 PM 48.2 °F - 26.6 °F 43% 29.77 in 10.0 mi West 19.6 mph 38.0 mph N/A   Overcast
4:15 PM 50.0 °F - 26.6 °F 40% 29.78 in 10.0 mi West 18.4 mph 26.5 mph N/A   Overcast
4:35 PM 48.2 °F - 26.6 °F 43% 29.79 in 10.0 mi West 24.2 mph 32.2 mph N/A   Scattered Clouds
5:15 PM 46.4 °F 41.1 °F 26.6 °F 46% 29.81 in 10.0 mi West 11.5 mph 21.9 mph N/A   Scattered Clouds
5:35 PM 46.4 °F 40.4 °F 26.6 °F 46% 29.82 in 10.0 mi West 13.8 mph 20.7 mph N/A   Overcast
5:55 PM 44.6 °F 39.2 °F 26.6 °F 49% 29.83 in 10.0 mi West 10.4 mph 18.4 mph N/A   Mostly Cloudy
6:15 PM 44.6 °F 39.7 °F 28.4 °F 53% 29.84 in 10.0 mi West 9.2 mph - N/A   Scattered Clouds
6:35 PM 44.6 °F 40.2 °F 28.4 °F 53% 29.85 in 10.0 mi West 8.1 mph - N/A   Clear
6:55 PM 42.8 °F 38.6 °F 28.4 °F 57% 29.86 in 10.0 mi West 6.9 mph - N/A   Clear
7:15 PM 42.8 °F 38.6 °F 28.4 °F 57% 29.86 in 10.0 mi West 6.9 mph - N/A   Clear
7:55 PM 42.8 °F 38.6 °F 28.4 °F 57% 29.87 in 10.0 mi West 6.9 mph - N/A   Clear
8:15 PM 41.0 °F 38.0 °F 28.4 °F 61% 29.88 in 10.0 mi WSW 4.6 mph - N/A   Clear
8:35 PM 41.0 °F 37.1 °F 28.4 °F 61% 29.88 in 10.0 mi WSW 5.8 mph - N/A   Clear
8:55 PM 41.0 °F 35.8 °F 28.4 °F 61% 29.88 in 10.0 mi WSW 8.1 mph - N/A   Clear
9:15 PM 41.0 °F 37.1 °F 28.4 °F 61% 29.89 in 10.0 mi West 5.8 mph - N/A   Clear
9:35 PM 39.2 °F 34.2 °F 28.4 °F 65% 29.89 in 10.0 mi WSW 6.9 mph - N/A   Clear
9:55 PM 41.0 °F 36.4 °F 28.4 °F 61% 29.89 in 10.0 mi West 6.9 mph - N/A   Clear
10:15 PM 41.0 °F 34.7 °F 26.6 °F 57% 29.89 in 10.0 mi West 10.4 mph - N/A   Clear
10:35 PM 41.0 °F 33.5 °F 26.6 °F 57% 29.90 in 10.0 mi West 13.8 mph 21.9 mph N/A   Clear
10:55 PM 41.0 °F 34.7 °F 26.6 °F 57% 29.90 in 10.0 mi West 10.4 mph 16.1 mph N/A   Clear
11:15 PM 41.0 °F 33.9 °F 26.6 °F 57% 29.90 in 10.0 mi West 12.7 mph 19.6 mph N/A   Clear
11:35 PM 41.0 °F 34.7 °F 24.8 °F 53% 29.90 in 10.0 mi West 10.4 mph 18.4 mph N/A   Clear
11:55 PM 41.0 °F 33.5 °F 24.8 °F 53% 29.90 in 10.0 mi West 13.8 mph - N/A   Clear